Location: Newark
(48.1500°N, 13.1167°E)
Time: 23:19:00
(UTC+00:00)

XW-2D - Pass Details

Date: 15 December 2021
Orbit: 502 x 522 km, 97.5° (Epoch: 19 January)

Event Time Altitude Azimuth Distance (km) Brightness Sun altitude
Rises 06:02:12 0° 3° (N) 2,668 ? -7.9°
Reaches altitude 10° 06:04:31 10° 352° (N) 1,773 ? -7.5°
Maximum altitude 06:07:48 28° 293° (WNW) 1,006 ? -7.0°
Drops below altitude 10° 06:11:04 10° 233° (SW) 1,753 ? -6.6°
Sets 06:13:20 0° 222° (SW) 2,632 ? -6.2°
